Home > Weather > Punta Cana > Past weeks

Flag for Dominican Republic Past Weather in Punta Cana, Dominican Republic — Yesterday and Last 2 Weeks

Now
79 °F

Passing clouds.


Feels Like: 82 °F
Forecast: 79 / 87 °F
Wind: 12 mph from Northeast

Location: Punta Cana

Current Time: Jul 24, 2016 at 6:46:06 AM

Latest Report: Jul 24, 2016 at 6:00 AM


Visibility: N/A

Pressure: 29.98 "Hg

Humidity: 84%

Dew Point: 73 °F

Location of Punta CanaLocation

Past Weather in Punta Cana — Graph

°F

Punta Cana Temperature Yesterday

Maximum temperature yesterday: 90 °F (at 2:00 PM)
Minimum temperature yesterday: 81 °F (at 3:00 AM)
Average temperature yesterday: 84 °F

High & Low Weather Summary for the Past Weeks

 TemperatureHumidityPressure
High90 °F (Jul 16, 2:00 PM)100% (Jul 18, 5:00 AM)30.12 "Hg (Jul 18, 5:00 AM)
Low75 °F (Jul 14, 11:00 PM)62% (Jul 9, 10:00 AM)29.95 "Hg (Jul 15, 5:00 PM)
Average83 °F80%30.03 "Hg
* Reported Jul 9 6:00 AM — Jul 24 6:00 AM, Punta Cana, Weather by CustomWeather, © 2016

Note: Actual official high and low records may vary slightly from our data, if they occured in-between our weather recording intervals... More about our weather records

Advertising

Punta Cana Weather History for the Previous 24 Hours

Scroll right to see more
 ConditionsComfort  
Time TempWeatherWind HumidityBarometerVisibility
6:00 AM
Sun, Jul 24
79 °FPassing clouds.12 mph84%29.98 "HgN/A
5:00 AM81 °FScattered showers. Passing clouds.9 mph84%29.98 "Hg5 mi
4:00 AM81 °FPassing clouds.10 mph84%29.98 "HgN/A
3:00 AM81 °FPassing clouds.12 mph84%29.98 "HgN/A
2:00 AM82 °FPassing clouds.12 mph79%29.98 "HgN/A
1:00 AM82 °FPassing clouds.12 mph79%30.01 "HgN/A
12:00 AM82 °FPassing clouds.16 mph79%30.01 "HgN/A
11:00 PM
Sat, Jul 23
82 °FPassing clouds.13 mph79%30.01 "HgN/A
10:00 PM82 °FPassing clouds.17 mph79%30.01 "HgN/A
9:00 PM82 °FPassing clouds.14 mph79%30.01 "HgN/A
8:00 PM82 °FPassing clouds.14 mph79%29.98 "HgN/A
7:00 PM82 °FScattered clouds.16 mph74%29.98 "HgN/A
6:00 PM84 °FScattered clouds.16 mph74%29.98 "HgN/A
5:00 PM86 °FScattered clouds.21 mph70%29.98 "HgN/A
4:00 PM88 °FScattered clouds.18 mph66%29.98 "HgN/A
3:00 PM88 °FScattered clouds.15 mph66%30.07 "HgN/A
2:00 PM90 °FScattered clouds.12 mph67%30.01 "HgN/A
1:00 PM88 °FScattered clouds.14 mph70%30.04 "HgN/A
12:00 PM88 °FPassing clouds.15 mph62%30.04 "HgN/A
11:00 AM86 °FPassing clouds.14 mph70%30.04 "HgN/A
10:00 AM86 °FPassing clouds.12 mph70%30.04 "HgN/A
9:00 AM86 °FPassing clouds.9 mph70%30.04 "HgN/A
8:00 AM84 °FPassing clouds.7 mph74%30.04 "HgN/A
7:00 AM81 °FPassing clouds.7 mph84%30.01 "HgN/A
6:00 AM81 °FPassing clouds.7 mph79%30.01 "HgN/A
Weather by CustomWeather, © 2016

See weather overviewHow to use our weather pages